Regional Weather Roundup
Issued by NWS

Home | Current Version | Previous Version | Graphics & Text | Print | Product List | Glossary On
Versions: 1 2 3 4 5 6 7 8 9 10 11 12 13 14 15 16 17 18 19 20 21 22 23 24 25 26 27 28 29 30 31 32 33 34 35 36 37 38 39 40 41 42 43 44 45 46 47 48 49 50
000
ASUS43 KBIS 281510
RWRND

NORTH DAKOTA REGIONAL WEATHER ROUNDUP
NATIONAL WEATHER SERVICE BISMARCK ND
900 AM CST SAT FEB 28 2015

NOTE: "FAIR" INDICATES FEW OR NO CLOUDS BELOW 12,000 FEET WITH NO
SIGNIFICANT WEATHER AND/OR OBSTRUCTIONS TO VISIBILITY.


NDZ001>003-009>011-017-281600-
NORTHWEST NORTH DAKOTA

CITY           SKY/WX    TMP DP  RH WIND       PRES   REMARKS
WILLISTON      CLOUDY     3  -4  72 VRB6      30.16S WCI  -8
MINOT          CLOUDY     5  -2  72 W14       30.08R WCI -12
MINOT AFB      CLOUDY     4  -1  82 NW14      30.08R WCI -14
$$

NDZ018>021-031>035-040>046-281600-
SOUTHWEST NORTH DAKOTA

CITY           SKY/WX    TMP DP  RH WIND       PRES   REMARKS
BISMARCK       CLOUDY    13   5  70 CALM      30.09R
DICKINSON      CLOUDY     8   3  80 NW23      30.06R WCI -13
GARRISON         N/A     12   5  73 NW12      30.06R WCI  -2
HETTINGER ARPT MOSUNNY   10   4  76 W17       30.07R WCI  -8
$$

NDZ004>008-012>016-024-026-027-054-281600-
NORTHEAST NORTH DAKOTA

CITY           SKY/WX    TMP DP  RH WIND       PRES   REMARKS
GRAND FORKS    CLOUDY     6  -1  73 S16       30.21S WCI -12
GRND FRKS AFB  CLOUDY     6  -2  70 S12       30.19S WCI  -9
DEVILS LAKE    PTSUNNY    7   0  72 CALM      30.10R
$$

NDZ022-023-025-028>030-036>039-047>053-281600-
SOUTHEAST NORTH DAKOTA

CITY           SKY/WX    TMP DP  RH WIND       PRES   REMARKS
FARGO          SUNNY      9   0  67 S16       30.27R WCI  -8
JAMESTOWN      MOSUNNY    7   0  73 S15       30.12S WCI -10
$$




USA.gov is the U.S. government's official web portal to all federal, state and local government web resources and services.